Regional Weather Roundup
Issued by NWS

Home | Current Version | Previous Version | Graphics & Text | Print | Product List | Glossary On
Versions: 1 2 3 4 5 6 7 8 9 10 11 12 13 14 15 16 17 18 19 20 21 22 23 24 25 26 27 28 29 30 31 32 33 34 35 36 37 38 39 40 41 42 43 44 45 46 47 48 49 50
000
ASUS43 KOAX 190410
RWRNE

WEATHER ROUNDUP FOR NEBRASKA
NATIONAL WEATHER SERVICE OMAHA NE
1100 PM CDT SAT APR 18 2015

NOTES: SATELLITE DATA IS BEING USED TO AUGMENT CLOUD COVER ABOVE
       12000 FEET.
       "FAIR" INDICATES FEW OR NO CLOUDS BELOW 12,000 FEET WITH NO
       SIGNIFICANT WEATHER AND/OR OBSTRUCTIONS TO VISIBILITY.

  * THESE STATIONS DO NOT REPORT WEATHER SUCH AS RAIN...SNOW OR FOG.

NEZ001>004-019>022-054>056-190500-
NEBRASKA PANHANDLE

CITY           SKY/WX    TMP DP  RH WIND       PRES   REMARKS
SCOTTSBLUFF    CLOUDY    47  32  56 W8        29.95R
ALLIANCE       CLOUDY    46  43  89 W7        29.93R
CHADRON        CLOUDY    47  43  86 NW5       29.95R
KIMBALL        CLOUDY    44  42  93 N15G23    29.94R
SIDNEY         CLOUDY    45  42  89 N14       29.92R
$$

NEZ057>060-069>072-079>082-190500-
SOUTHWEST NEBRASKA

CITY           SKY/WX    TMP DP  RH WIND       PRES   REMARKS
NORTH PLATTE   RAIN      49  47  93 NE7       29.86F
IMPERIAL       CLOUDY    49  43  80 NE16      29.85R
LEXINGTON      CLOUDY   101 N/A N/A NW16      29.84F
MCCOOK         CLOUDY    53  47  79 SE7       29.81S
OGALLALA       CLOUDY    49  45  84 N21G26    29.85S
$$

NEZ005>010-023>029-035>040-094-190500-
NORTH CENTRAL NEBRASKA

CITY           SKY/WX    TMP DP  RH WIND       PRES   REMARKS
VALENTINE      CLOUDY    52  46  80 N8        29.87R
AINSWORTH      CLOUDY    55  53  94 N13       29.85S
BROKEN BOW     LGT RAIN  53  47  79 W18       29.85R
O`NEILL        CLOUDY    55  55  99 N5        29.81F FOG
ORD            CLOUDY    56  46  69 SW13      29.80R
THEDFORD       CLOUDY    53  48  83 NW21G36   29.86R
$$

NEZ041-046>049-061>064-073>077-083>087-190500-
SOUTH CENTRAL NEBRASKA

CITY           SKY/WX    TMP DP  RH WIND       PRES   REMARKS
GRAND ISLAND   CLOUDY    54  47  77 SW10      29.82F
AURORA         CLOUDY    55  50  85 SW9       29.83F
HASTINGS       LGT RAIN  53  48  83 N9        29.83F
HEBRON         RAIN      54  50  87 CALM      29.83S
HOLDREGE       CLOUDY    53  49  87 NE10      29.81F
KEARNEY *      CLOUDY    52  46  82 E9        29.84F
YORK           CLOUDY    55  50  82 SW8       29.82F
$$

NEZ011>018-030>034-042>045-190500-
NORTHEAST NEBRASKA

CITY           SKY/WX    TMP DP  RH WIND       PRES   REMARKS
ALBION         MOCLDY    58  54  85 SE12      29.79F
BLAIR          PTCLDY    55  53  92 S3        29.82S
COLUMBUS *     CLOUDY    57  52  82 S8        29.82F
FREMONT        CLOUDY    59  56  90 S7        29.83R
TEKAMAH        MOCLDY    54  53  97 SW6       29.82S
WAYNE          CLOUDY    56  55  95 S5        29.81F
$$

NEZ050>053-065>068-078-088>093-190500-
SOUTHEAST NEBRASKA

CITY           SKY/WX    TMP DP  RH WIND       PRES   REMARKS
LINCOLN        CLOUDY    61  55  81 SW8       29.82F
OMAHA EPPLEY   MOCLDY    56  55  97 S3        29.82R
BEATRICE       CLOUDY    56  54  91 SW8       29.82F
FALLS CITY     CLOUDY    56  55  97 S6        29.81S FOG
NEBRASKA CITY  PTCLDY    56  56  99 SE3       29.81F FOG
PLATTSMOUTH    PTCLDY    56  54  92 CALM      29.82S
$$

NEZ044-045-051>053-067-190500-
OMAHA AREA

CITY           SKY/WX    TMP DP  RH WIND       PRES   REMARKS
OMAHA EPPLEY   MOCLDY    56  55  97 S3        29.82R
BLAIR          PTCLDY    55  53  92 S3        29.82S
FREMONT        CLOUDY    59  56  90 S7        29.83R
MILLARD        PTCLDY    58  56  93 CALM      29.82S
OFFUTT AFB     MOCLDY    56  54  95 SE5       29.81S
PLATTSMOUTH    PTCLDY    56  54  92 CALM      29.82S
WAHOO          CLOUDY    56  54  92 SE3       29.82S
$$



USA.gov is the U.S. government's official web portal to all federal, state and local government web resources and services.